Hurghada, Egypt

1:39 AM EET on July 24, 2017 (GMT +0200)
Hurghada

Weather History for HEGN - April, 2014

Change the Weather History Date:

Friday, April 18, 2014

  Actual Average Record
Temperature  
Mean Temperature 80 °F -  
Max Temperature 91 °F 86 °F 96 °F (2011)
Min Temperature 68 °F 69 °F 50 °F (1999)
Cooling Degree Days 14    
Growing Degree Days 30 (Base 50)    
Moisture  
Dew Point 54 °F    
Average Humidity 40    
Maximum Humidity 73    
Minimum Humidity 18    
Precipitation  
Precipitation 0.00 in - - ()
Sea Level Pressure  
Sea Level Pressure 29.90 in    
Wind  
Wind Speed 9 mph ()    
Max Wind Speed 16 mph    
Max Gust Speed -    
Visibility 6.0 miles    
Events      
Averages and records for this station are not official NWS values.
T = Trace of Precipitation, MM = Missing Value Source: Averaged Metar Reports

Daily Weather History Graph

Daily Weather History Graph

Search for Another Location

Airport or City:

Trip Planner

Search our weather history database for the weather conditions in past years. The results will help you decide how hot, cold, wet, or windy it might be!

Date:

Astronomy

Apr. 18, 2014 Rise Set
Actual Time 5:18 AM EET 6:11 PM EET
Civil Twilight 4:54 AM EET 6:35 PM EET
Nautical Twilight 4:26 AM EET 7:03 PM EET
Astronomical Twilight 3:57 AM EET 7:32 PM EET
Moon 9:24 PM EET (4/18) 7:33 AM EET (4/18)
Length of Visible Light 13h 40m
Length of Day
12h 52m
Waning Gibbous, 89% of the Moon is Illuminated
Apr 18
Waning Gibbous
Apr 22
Last Quarter
Apr 29
New
May 7
First Quarter
May 14
Full

Hourly Weather History & Observations

Time (EET) Temp. Heat Index Dew Point Humidity Pressure Visibility Wind Dir Wind Speed Gust Speed Precip Events Conditions
1:00 AM 73.4 °F - 44.6 °F 36% 29.86 in - NW 9.2 mph - N/A   Clear
2:00 AM 74 °F - 44 °F 23% 29.86 in 6 mi NW 11.5 mph - -  
2:00 AM 73.4 °F - 42.8 °F 33% 29.86 in - NW 11.5 mph - N/A   Clear
3:00 AM 73.4 °F - 44.6 °F 36% 29.86 in - WNW 13.8 mph - N/A   Clear
4:00 AM 73.4 °F - 46.4 °F 38% 29.86 in - WNW 16.1 mph - N/A   Clear
5:00 AM 71 °F - 47 °F 30% 29.89 in 6 mi WNW 13.8 mph - -  
5:00 AM 71.6 °F - 46.4 °F 41% 29.89 in - WNW 13.8 mph - N/A   Clear
7:00 AM 73.4 °F - 48.2 °F 41% 29.92 in - WNW 11.5 mph - N/A   Clear
8:00 AM 80 °F - 50 °F 24% 29.95 in 6 mi NNW 13.8 mph - -  
8:00 AM 78.8 °F - 50.0 °F 36% 29.95 in - NNW 13.8 mph - N/A   Clear
9:00 AM 82.4 °F - 51.8 °F 35% 29.95 in - North 13.8 mph - N/A   Clear
10:00 AM 84.2 °F 83.0 °F 55.4 °F 37% 29.95 in - North 11.5 mph - N/A   Clear
11:00 AM 87 °F - 54 °F 23% 29.95 in 6 mi West 4.6 mph - -  
11:00 AM 87.8 °F 85.7 °F 53.6 °F 31% 29.95 in - North 4.6 mph - N/A   Clear
12:00 PM 91.4 °F 90.7 °F 59.0 °F 34% 29.95 in - ESE 6.9 mph - N/A   Clear
1:00 PM 89.6 °F 90.1 °F 62.6 °F 40% 29.92 in - ESE 9.2 mph - N/A   Clear
2:00 PM 91 °F - 53 °F 18% 29.91 in 6 mi ESE 9.2 mph - -  
2:00 PM 91.4 °F - 51.8 °F 26% 29.89 in - ESE 9.2 mph - N/A   Clear
3:00 PM 91.4 °F 89.9 °F 57.2 °F 31% 29.89 in - ESE 6.9 mph - N/A   Clear
4:00 PM 89.6 °F 88.9 °F 59.0 °F 36% 29.89 in - ESE 6.9 mph - N/A   Clear
5:00 PM 88 °F - 56 °F 24% 29.88 in 6 mi SE 9.2 mph - -  
5:00 PM 87.8 °F 86.5 °F 57.2 °F 35% 29.92 in - SE 9.2 mph - N/A   Clear
6:00 PM 80.6 °F 80.8 °F 57.2 °F 45% 29.86 in - SSE 6.9 mph - N/A   Clear
7:00 PM 78.8 °F - 55.4 °F 44% 29.86 in - SE 3.5 mph - N/A   Clear
8:00 PM 77 °F - 62 °F 51% 29.89 in 6 mi ESE 6.9 mph - -   Clear
8:00 PM 77.0 °F - 62.6 °F 61% 29.89 in - ESE 6.9 mph - N/A   Clear
9:00 PM 73.4 °F - 60.8 °F 65% 29.89 in - Calm Calm - N/A   Clear
10:00 PM 73.4 °F - 64.4 °F 73% 29.89 in - Calm Calm - N/A   Clear
11:00 PM 73 °F - 64 °F 66% 29.89 in 6 mi SE 4.6 mph - -  
11:00 PM 73.4 °F - 64.4 °F 73% 29.89 in - SE 4.6 mph - N/A   Clear